[[{"header":{"parameterUnit":"m.s-1","parameterCategory":1,"la1":30.2991,"la2":30.254,"lo1":-89.0895,"lo2":-89.0444,"dy":0.0017,"dx":0.0017,"nx":28,"ny":28,"refTime":"2025-08-18T21:00:00:Z","depth":0,"parameterNumber":2,"parameterNumberName":"U-component_of_WINDS"},"data":[0,0,0,0,0,0,0,0,0,0,0,0,0,0,0,0,0,0,0,0,0,0,0,0,0,0,0,0,0,0,0,0,0,0,0,0,0,0,0,0,0,0,0,0,0,0,0,0,0,0,0,0,0,0,0,0,0,0,2.193,2.1928,0,2.178,2.1778,2.1776,2.164,2.1638,2.1636,2.1635,2.1476,2.1474,2.1471,0,0,0,0,0,0,0,0,0,0,0,0,0,2.2097,2.2095,2.193,2.1928,2.1926,2.178,2.1778,2.1776,2.164,2.1638,2.1636,2.1634,2.1477,2.1474,2.1471,0,0,0,0,0,0,0,0,0,0,0,0,0,2.1993,2.2094,2.193,2.1841,2.1831,2.178,2.1778,2.1775,2.164,2.1638,2.1635,2.1633,2.1478,2.1474,2.147,2.1494,0,0,2.1458,2.1456,0,0,0,0,0,0,0,0,2.1999,2.1987,2.1856,2.1847,2.1836,2.1726,2.1778,2.1681,2.1641,2.1713,2.1635,2.1632,2.1561,2.155,2.1527,2.1487,2.148,2.1458,2.1455,2.1453,2.1452,0,0,0,0,0,0,0,2.2007,2.1993,2.187,2.1854,2.1842,2.1808,2.179,2.1759,2.1652,2.1706,2.1696,2.168,2.1555,2.1531,2.1522,2.1478,2.1458,2.1454,2.1452,2.145,2.1451,2.1453,0,0,0,0,0,0,2.2028,2.2,2.1875,2.1866,2.1914,2.1807,2.1787,2.1764,2.1652,2.1633,2.1683,2.1675,2.1539,2.1527,2.1516,2.1537,2.1453,2.145,2.1447,2.1448,2.1451,2.1454,0,0,0,0,0,0,2.2032,2.2018,2.1881,2.193,2.191,2.1806,2.1781,2.1762,2.1738,2.1634,2.1614,2.1678,2.1537,2.1522,2.1501,2.1529,2.1448,2.1444,2.1445,2.1449,2.1453,2.1578,0,0,0,0,0,0,2.2038,2.2021,2.2029,2.1931,2.1908,2.187,2.1783,2.1761,2.1732,2.172,2.1625,2.1607,2.1534,2.1508,2.1497,2.1522,2.1441,2.1442,2.1447,2.1451,2.1571,2.1586,2.1599,0,0,0,0,0,2.2044,2.2069,2.203,2.2016,2.1916,2.1871,2.1858,2.1775,2.1735,2.1742,2.1676,2.161,2.1529,2.1507,2.1494,2.1518,2.144,2.1446,2.1451,2.1565,2.1583,2.1598,0,0,0,0,0,0,2.217,2.2054,2.201,2.2004,2.1949,2.1849,2.1854,2.1797,2.175,2.1741,2.1639,2.1619,2.161,2.1562,2.154,2.1536,2.1476,2.1479,2.1567,2.1583,2.1597,2.1607,2.1438,0,0,0,0,0,2.2198,2.2172,2.2072,2.2077,2.2052,2.1959,2.1936,2.1878,2.1815,2.1791,2.1723,2.1665,2.1626,2.1602,2.1561,2.1565,2.1542,2.1575,2.1589,2.1601,2.1604,2.1603,2.1616,2.1472,2.1472,2.1472,0,0,2.2253,2.2187,2.2176,2.21,2.205,2.2026,2.1939,2.1916,2.1896,2.1787,2.1763,2.1712,2.164,2.1633,2.1626,2.1592,2.1639,2.1608,2.1618,2.1614,2.161,2.1624,2.1636,2.1476,2.1475,2.1474,0,0,2.2341,2.2289,2.2287,2.224,2.2167,2.2106,2.2107,2.2016,2.1978,2.1954,2.1871,2.1846,2.1782,2.1734,2.1702,2.1777,2.1714,2.1767,2.1836,2.1837,2.1848,2.1858,2.1884,2.1894,2.177,2.1771,2.1771,0,2.2418,2.2378,2.2293,2.2276,2.2245,2.2148,2.2145,2.2103,2.2021,2.2001,2.1966,2.1885,2.1829,2.1809,2.1829,2.1806,2.1802,2.1775,2.1854,2.1863,2.187,2.1894,2.1904,2.1777,2.1777,2.1776,2.1775,0,2.2477,2.2451,2.2458,2.2383,2.2353,2.2343,2.2257,2.2237,2.2183,2.2125,2.2102,2.2034,2.1977,2.1969,2.1914,2.1942,2.1923,2.1873,2.1809,2.1892,2.1912,2.1921,2.1787,2.1785,2.1783,2.1781,0,0,2.2635,2.2516,2.252,2.2485,2.24,2.2377,2.2365,2.2311,2.2296,2.2244,2.2229,2.2179,2.2133,2.2096,2.2036,2.2037,2.2101,2.1986,2.1983,2.2009,2.2126,2.2163,2.2175,2.2061,2.2062,2.2063,2.2132,0,2.2707,2.2678,2.2603,2.2596,2.2571,2.2481,2.247,2.2416,2.2363,2.2334,2.2275,2.2241,2.2183,2.216,2.2158,2.2094,2.2123,2.2088,2.2044,2.2044,2.2063,2.2186,2.2224,2.2292,2.214,2.2141,2.2142,0,2.2786,2.2741,2.2733,2.2651,2.2638,2.2629,2.2575,2.2549,2.2487,2.2448,2.2411,2.2345,2.2326,2.2271,2.2242,2.2221,2.2199,2.2166,2.2166,2.2157,2.2096,2.2178,2.2312,2.2322,2.2154,2.2153,2.2152,0,2.2901,2.2839,2.2826,2.2799,2.2704,2.27,2.2659,2.2595,2.2569,2.2523,2.2505,2.2457,2.2429,2.2394,2.2317,2.2284,2.2298,2.2236,2.2264,2.2266,2.2268,2.2268,2.2399,2.2259,2.2259,2.2258,2.2258,0,2.2987,2.2985,2.2877,2.2868,2.2864,2.2779,2.2777,2.2728,2.2673,2.2653,2.2573,2.2557,2.2458,2.243,2.2371,2.2357,2.2345,2.2313,2.2297,2.2318,2.2323,2.23,2.2293,2.2261,2.2261,2.226,2.226,0,2.3112,2.304,2.302,2.2933,2.2911,2.2912,2.2836,2.2825,2.277,2.2746,2.2736,2.2648,2.2612,2.2534,2.2475,2.2435,2.2434,2.2407,2.2456,2.2445,2.2477,2.2475,2.2596,2.2607,2.2463,2.2465,2.2466,0,2.3171,2.3168,2.3082,2.3064,2.3028,2.3,2.2974,2.2891,2.2867,2.2799,2.2796,2.2754,2.2715,2.2661,2.2591,2.2547,2.2516,2.2562,2.2508,2.2531,2.2514,2.2515,2.2514,2.2572,2.2574,2.2576,2.2577,0,2.3282,2.3248,2.3213,2.3168,2.314,2.31,2.3055,2.3045,2.2952,2.2929,2.2892,2.2863,2.2805,2.2763,2.2709,2.2667,2.2607,2.2596,2.2599,2.262,2.2648,2.2632,2.2486,2.2592,2.259,2.2589,2.2589,2.2588,2.3374,2.3367,2.3307,2.3272,2.3231,2.3192,2.3178,2.3122,2.309,2.3038,2.2992,2.2959,2.2899,2.282,2.2783,2.2756,2.2725,2.2731,2.2732,2.2734,2.2744,2.2656,2.2746,2.2745,2.2745,2.2744,2.2744,0,2.3479,2.3437,2.3407,2.3348,2.3322,2.3271,2.322,2.32,2.3173,2.3124,2.3089,2.3047,2.3008,2.2937,2.2892,2.2884,2.2855,2.2875,2.2873,2.2864,2.2774,2.2774,2.2899,2.2899,2.2899,2.2899,2.2899,2.2899,2.3531,2.3517,2.3477,2.3442,2.3399,2.3368,2.3343,2.3307,2.3267,2.3225,2.3193,2.3149,2.309,2.3041,2.3003,2.2983,2.297,2.2998,2.2969,2.2885,2.287,2.2856,2.2856,2.2996,2.2996,2.3061,2.3062,2.3062]},{"header":{"parameterUnit":"m.s-1","parameterCategory":1,"la1":30.2991,"la2":30.254,"lo1":-89.0895,"lo2":-89.0444,"dy":0.0017,"dx":0.0017,"nx":28,"ny":28,"refTime":"2025-08-18T21:00:00:Z","depth":0,"parameterNumber":3,"parameterNumberName":"V-component_of_WINDS"},"data":[0,0,0,0,0,0,0,0,0,0,0,0,0,0,0,0,0,0,0,0,0,0,0,0,0,0,0,0,0,0,0,0,0,0,0,0,0,0,0,0,0,0,0,0,0,0,0,0,0,0,0,0,0,0,0,0,0,0,-0.5579,-0.558,0,-0.5691,-0.5692,-0.5694,-0.5741,-0.5741,-0.5741,-0.5741,-0.586,-0.5863,-0.5867,0,0,0,0,0,0,0,0,0,0,0,0,0,-0.5405,-0.5408,-0.5578,-0.558,-0.5581,-0.5691,-0.5692,-0.5694,-0.5741,-0.5741,-0.5741,-0.5741,-0.5859,-0.5863,-0.5867,0,0,0,0,0,0,0,0,0,0,0,0,0,-0.5495,-0.5409,-0.5578,-0.5618,-0.5623,-0.5691,-0.5693,-0.5694,-0.5741,-0.5741,-0.5741,-0.574,-0.5858,-0.5863,-0.5868,-0.5906,0,0,-0.5883,-0.5885,0,0,0,0,0,0,0,0,-0.549,-0.5502,-0.5611,-0.5615,-0.5621,-0.5702,-0.5675,-0.5765,-0.5741,-0.5696,-0.5741,-0.574,-0.5808,-0.5817,-0.5839,-0.5911,-0.5916,-0.5884,-0.5887,-0.5889,-0.589,0,0,0,0,0,0,0,-0.5484,-0.5497,-0.5623,-0.5612,-0.5618,-0.563,-0.5643,-0.5692,-0.5753,-0.57,-0.5704,-0.5716,-0.5811,-0.5834,-0.5842,-0.5918,-0.5883,-0.5888,-0.5891,-0.5893,-0.6023,-0.6023,0,0,0,0,0,0,-0.5471,-0.5492,-0.562,-0.5627,-0.5553,-0.5634,-0.5648,-0.5676,-0.5752,-0.5764,-0.5717,-0.5718,-0.5826,-0.5836,-0.5847,-0.5894,-0.5889,-0.5894,-0.5896,-0.6022,-0.6023,-0.6023,0,0,0,0,0,0,-0.5467,-0.5482,-0.5615,-0.556,-0.5578,-0.5637,-0.5669,-0.5679,-0.5702,-0.5765,-0.5776,-0.5729,-0.5826,-0.5839,-0.5889,-0.5899,-0.5896,-0.59,-0.6022,-0.6022,-0.6023,-0.5989,0,0,0,0,0,0,-0.5462,-0.548,-0.5495,-0.556,-0.5581,-0.5656,-0.5669,-0.5681,-0.571,-0.5713,-0.578,-0.579,-0.5826,-0.5881,-0.5894,-0.5906,-0.5904,-0.6021,-0.6022,-0.6023,-0.599,-0.5989,-0.5988,0,0,0,0,0,-0.5455,-0.5483,-0.5496,-0.5511,-0.5601,-0.5656,-0.5668,-0.5708,-0.5711,-0.5726,-0.5766,-0.5788,-0.5895,-0.5886,-0.5901,-0.5914,-0.6021,-0.6022,-0.6023,-0.5991,-0.5989,-0.5988,0,0,0,0,0,0,-0.5422,-0.5493,-0.5508,-0.5557,-0.56,-0.5664,-0.5686,-0.5706,-0.575,-0.5751,-0.58,-0.5814,-0.5859,-0.5892,-0.5881,-0.5953,-0.596,-0.5964,-0.593,-0.5929,-0.5928,-0.592,-0.5909,0,0,0,0,0,-0.5419,-0.5457,-0.5518,-0.5556,-0.5576,-0.5626,-0.5652,-0.5679,-0.5726,-0.5745,-0.5788,-0.5833,-0.5877,-0.5905,-0.5949,-0.5994,-0.6008,-0.601,-0.6009,-0.6008,-0.6011,-0.6034,-0.6035,-0.6026,-0.6026,-0.6026,0,0,-0.5416,-0.546,-0.5482,-0.555,-0.5586,-0.5624,-0.5642,-0.5683,-0.5711,-0.5751,-0.58,-0.5833,-0.5887,-0.5933,-0.5956,-0.5962,-0.6016,-0.6009,-0.6007,-0.6011,-0.6035,-0.6036,-0.6037,-0.6027,-0.6027,-0.6027,0,0,-0.543,-0.5467,-0.5501,-0.5535,-0.5589,-0.5621,-0.5629,-0.5689,-0.5711,-0.576,-0.579,-0.5825,-0.59,-0.5935,-0.5964,-0.5984,-0.6006,-0.5997,-0.5992,-0.6014,-0.6015,-0.6016,-0.6021,-0.6023,-0.6,-0.6,-0.6,0,-0.542,-0.5478,-0.5516,-0.5554,-0.5582,-0.5616,-0.565,-0.5683,-0.5748,-0.5767,-0.5771,-0.5862,-0.5901,-0.5955,-0.5959,-0.5982,-0.5991,-0.5991,-0.6011,-0.6012,-0.6014,-0.602,-0.6022,-0.5998,-0.5998,-0.5999,-0.5999,0,-0.5462,-0.5501,-0.5522,-0.558,-0.5611,-0.5647,-0.569,-0.5716,-0.5738,-0.577,-0.5818,-0.5865,-0.5917,-0.5931,-0.5956,-0.5988,-0.5989,-0.6002,-0.601,-0.6012,-0.6019,-0.6022,-0.5996,-0.5997,-0.5997,-0.5997,0,0,-0.5461,-0.5536,-0.5543,-0.5568,-0.5627,-0.5659,-0.5694,-0.5743,-0.5763,-0.5806,-0.5837,-0.5896,-0.5907,-0.5938,-0.5966,-0.5985,-0.5995,-0.5995,-0.5997,-0.5992,-0.6032,-0.6022,-0.6024,-0.6009,-0.601,-0.6011,-0.6027,0,-0.5482,-0.5546,-0.5579,-0.563,-0.5665,-0.5695,-0.5726,-0.5765,-0.5794,-0.5829,-0.5862,-0.5902,-0.5914,-0.5933,-0.5953,-0.599,-0.6004,-0.5989,-0.6038,-0.604,-0.6024,-0.6028,-0.6018,-0.6032,-0.603,-0.603,-0.6031,0,-0.5516,-0.5554,-0.5607,-0.5657,-0.5673,-0.57,-0.5745,-0.5777,-0.5821,-0.5841,-0.5873,-0.5899,-0.5937,-0.5941,-0.5993,-0.5982,-0.6004,-0.6024,-0.6025,-0.6032,-0.6036,-0.6034,-0.6038,-0.6039,-0.6035,-0.6035,-0.6035,0,-0.5508,-0.5573,-0.5612,-0.5633,-0.5693,-0.571,-0.5737,-0.578,-0.5805,-0.5844,-0.5861,-0.5905,-0.5929,-0.5962,-0.5999,-0.5998,-0.6046,-0.6054,-0.6064,-0.6063,-0.6074,-0.6073,-0.608,-0.6088,-0.6088,-0.6088,-0.6088,0,-0.5528,-0.5559,-0.5608,-0.5633,-0.5667,-0.5704,-0.5737,-0.5765,-0.5802,-0.5832,-0.5862,-0.5889,-0.5936,-0.5969,-0.5998,-0.6035,-0.6046,-0.6063,-0.607,-0.606,-0.6058,-0.6076,-0.6076,-0.6088,-0.6088,-0.6088,-0.6088,0,-0.5526,-0.5561,-0.5605,-0.5655,-0.5669,-0.5692,-0.5736,-0.576,-0.5788,-0.5825,-0.5836,-0.5882,-0.5922,-0.5961,-0.6016,-0.6035,-0.6071,-0.6082,-0.6056,-0.606,-0.6067,-0.6065,-0.6086,-0.609,-0.6095,-0.6095,-0.6095,0,-0.5536,-0.556,-0.5612,-0.5632,-0.5656,-0.569,-0.5715,-0.5751,-0.5776,-0.5824,-0.5842,-0.5883,-0.5918,-0.598,-0.6019,-0.606,-0.6071,-0.6075,-0.6077,-0.6065,-0.6069,-0.6067,-0.6069,-0.6074,-0.6074,-0.6074,-0.6074,0,-0.5551,-0.5565,-0.5599,-0.5637,-0.5664,-0.5697,-0.5731,-0.5746,-0.5789,-0.5815,-0.5854,-0.588,-0.5933,-0.5974,-0.6018,-0.6046,-0.6066,-0.6072,-0.6076,-0.6066,-0.605,-0.6057,-0.6052,-0.6072,-0.6072,-0.6072,-0.6072,-0.6072,-0.5555,-0.5575,-0.5613,-0.5649,-0.5677,-0.5706,-0.573,-0.5759,-0.5792,-0.5836,-0.5856,-0.5895,-0.5935,-0.5996,-0.6022,-0.6053,-0.6059,-0.6066,-0.6067,-0.6068,-0.6065,-0.6044,-0.6062,-0.6062,-0.6062,-0.6062,-0.6062,0,-0.5569,-0.5594,-0.5625,-0.5669,-0.5696,-0.571,-0.5747,-0.5769,-0.5802,-0.5836,-0.5868,-0.5912,-0.595,-0.5989,-0.6029,-0.6046,-0.6057,-0.6056,-0.6055,-0.606,-0.6059,-0.605,-0.6046,-0.6046,-0.6046,-0.6046,-0.6046,-0.6046,-0.558,-0.5615,-0.5633,-0.5681,-0.5706,-0.5742,-0.5761,-0.5788,-0.5815,-0.5861,-0.5892,-0.5916,-0.5952,-0.5994,-0.6029,-0.6039,-0.6053,-0.6049,-0.6062,-0.606,-0.6061,-0.6062,-0.6054,-0.6051,-0.6051,-0.6061,-0.6061,-0.6061]}]]